Time,TemperatureF,DewpointF,PressureIn,WindDirection,WindDirectionDegrees,WindSpeedMPH,WindSpeedGustMPH,Humidity,HourlyPrecipIn,Conditions,Clouds,dailyrainin,SolarRadiationWatts/m^2,SoftwareType,DateUTC
2013-04-23 00:00:00,50.0,24.7,30.32,SSE,154,7.9,12.0,37,0.00,CLR,OVC,0.00,0.0,WeatherDisplay:10.37,2013-04-23 04:00:00,
2013-04-23 00:01:00,50.0,24.7,30.32,SSE,157,9.3,14.0,37,0.00,CLR,OVC,0.00,0.0,WeatherDisplay:10.37,2013-04-23 04:01:00,
2013-04-23 00:06:00,50.0,25.4,30.32,SSE,153,8.5,14.0,38,0.00,CLR,OVC,0.00,0.0,WeatherDisplay:10.37,2013-04-23 04:06:00,
2013-04-23 00:11:00,49.9,25.3,30.32,SE,143,6.1,13.0,38,0.00,CLR,OVC,0.00,0.0,WeatherDisplay:10.37,2013-04-23 04:11:00,
2013-04-23 00:16:00,49.7,25.1,30.31,SSE,163,6.4,12.7,38,0.00,CLR,OVC,0.00,0.0,WeatherDisplay:10.37,2013-04-23 04:16:00,
2013-04-23 00:21:00,49.5,24.9,30.31,SSE,153,9.1,17.0,38,0.00,CLR,OVC,0.00,0.0,WeatherDisplay:10.37,2013-04-23 04:21:00,
2013-04-23 00:26:00,49.4,25.4,30.32,SSE,155,5.7,9.2,39,0.00,CLR,OVC,0.00,0.0,WeatherDisplay:10.37,2013-04-23 04:26:00,
2013-04-23 00:31:00,49.2,25.3,30.31,SSE,163,5.6,13.8,39,0.00,CLR,OVC,0.00,0.0,WeatherDisplay:10.37,2013-04-23 04:31:00,
2013-04-23 00:36:00,49.0,25.1,30.31,SSE,148,5.4,11.5,39,0.00,CLR,OVC,0.00,0.0,WeatherDisplay:10.37,2013-04-23 04:36:00,
2013-04-23 00:41:00,48.9,25.6,30.31,SSE,158,4.1,11.5,40,0.00,CLR,OVC,0.00,0.0,WeatherDisplay:10.37,2013-04-23 04:41:00,
2013-04-23 00:46:00,48.8,25.5,30.31,SSE,167,7.8,11.0,40,0.00,CLR,OVC,0.00,0.0,WeatherDisplay:10.37,2013-04-23 04:46:00,
2013-04-23 00:51:00,48.7,25.4,30.32,SSE,156,4.8,11.0,40,0.00,CLR,OVC,0.00,0.0,WeatherDisplay:10.37,2013-04-23 04:51:00,
2013-04-23 00:56:00,48.6,25.3,30.31,SSE,157,6.9,10.4,40,0.00,CLR,OVC,0.00,0.0,WeatherDisplay:10.37,2013-04-23 04:56:00,
2013-04-23 01:01:00,48.5,25.8,30.31,SSE,159,4.9,13.8,41,0.00,CLR,OVC,0.00,0.0,WeatherDisplay:10.37,2013-04-23 05:01:00,
2013-04-23 01:06:00,48.3,25.7,30.31,SSE,168,5.0,7.0,41,0.00,CLR,OVC,0.00,0.0,WeatherDisplay:10.37,2013-04-23 05:06:00,
2013-04-23 01:11:00,48.1,26.1,30.32,SSE,163,4.0,10.4,42,0.00,CLR,OVC,0.00,0.0,WeatherDisplay:10.37,2013-04-23 05:11:00,
2013-04-23 01:16:00,48.0,26.0,30.32,SSE,161,5.0,8.1,42,0.00,CLR,OVC,0.00,0.0,WeatherDisplay:10.37,2013-04-23 05:16:00,
2013-04-23 01:21:00,47.8,26.4,30.31,SSE,165,4.2,6.9,43,0.00,CLR,OVC,0.00,0.0,WeatherDisplay:10.37,2013-04-23 05:21:00,
2013-04-23 01:26:00,47.7,26.3,30.31,SSE,162,3.5,6.0,43,0.00,CLR,OVC,0.00,0.0,WeatherDisplay:10.37,2013-04-23 05:26:00,
2013-04-23 01:31:00,47.5,26.1,30.31,SE,146,5.0,9.2,43,0.00,CLR,OVC,0.00,0.0,WeatherDisplay:10.37,2013-04-23 05:31:00,
2013-04-23 01:36:00,47.4,26.6,30.31,SSE,156,3.6,9.2,44,0.00,CLR,OVC,0.00,0.0,WeatherDisplay:10.37,2013-04-23 05:36:00,
2013-04-23 01:41:00,47.3,26.5,30.31,SSE,165,3.2,10.4,44,0.00,CLR,OVC,0.00,0.0,WeatherDisplay:10.37,2013-04-23 05:41:00,
2013-04-23 01:46:00,47.2,26.4,30.31,SSE,164,3.1,6.9,44,0.00,CLR,OVC,0.00,0.0,WeatherDisplay:10.37,2013-04-23 05:46:00,
2013-04-23 01:51:00,47.0,26.7,30.31,SSE,163,3.2,6.0,45,0.00,CLR,OVC,0.00,0.0,WeatherDisplay:10.37,2013-04-23 05:51:00,
2013-04-23 01:56:00,46.8,27.1,30.32,SSE,164,3.9,10.4,46,0.00,CLR,OVC,0.00,0.0,WeatherDisplay:10.37,2013-04-23 05:56:00,
2013-04-23 02:01:00,46.7,27.0,30.32,SSE,159,7.4,11.5,46,0.00,CLR,OVC,0.00,0.0,WeatherDisplay:10.37,2013-04-23 06:01:00,
2013-04-23 02:06:00,46.7,27.0,30.32,SSE,161,4.3,10.4,46,0.00,CLR,OVC,0.00,0.0,WeatherDisplay:10.37,2013-04-23 06:06:00,
2013-04-23 02:12:00,46.6,27.4,30.32,SSE,165,3.4,10.4,47,0.00,CLR,OVC,0.00,0.0,WeatherDisplay:10.37,2013-04-23 06:12:00,
2013-04-23 02:17:00,46.5,27.3,30.32,SSE,155,4.7,8.1,47,0.00,CLR,OVC,0.00,0.0,WeatherDisplay:10.37,2013-04-23 06:17:00,
2013-04-23 02:22:00,46.5,27.3,30.32,SSE,157,5.5,9.2,47,0.00,CLR,OVC,0.00,0.0,WeatherDisplay:10.37,2013-04-23 06:22:00,
2013-04-23 02:27:00,46.4,27.8,30.32,SSE,154,5.4,9.2,48,0.00,CLR,OVC,0.00,0.0,WeatherDisplay:10.37,2013-04-23 06:27:00,
2013-04-23 02:32:00,46.3,27.7,30.31,SSE,155,4.7,10.4,48,0.00,CLR,OVC,0.00,0.0,WeatherDisplay:10.37,2013-04-23 06:32:00,
2013-04-23 02:37:00,46.3,28.2,30.31,South,169,6.8,12.7,49,0.00,CLR,OVC,0.00,0.0,WeatherDisplay:10.37,2013-04-23 06:37:00,
2013-04-23 02:42:00,46.2,28.1,30.31,South,173,8.9,15.0,49,0.00,CLR,OVC,0.00,0.0,WeatherDisplay:10.37,2013-04-23 06:42:00,
2013-04-23 02:47:00,46.2,29.1,30.31,SSE,165,6.6,11.5,51,0.00,CLR,OVC,0.00,0.0,WeatherDisplay:10.37,2013-04-23 06:47:00,
2013-04-23 02:52:00,46.1,29.0,30.31,SSE,156,5.9,11.5,51,0.00,CLR,OVC,0.00,0.0,WeatherDisplay:10.37,2013-04-23 06:52:00,
2013-04-23 02:57:00,46.0,28.9,30.31,SSE,164,4.6,10.4,51,0.00,CLR,OVC,0.00,0.0,WeatherDisplay:10.37,2013-04-23 06:57:00,
2013-04-23 03:02:00,45.9,29.2,30.31,South,169,3.5,10.4,52,0.00,CLR,OVC,0.00,0.0,WeatherDisplay:10.37,2013-04-23 07:02:00,
2013-04-23 03:07:00,45.7,29.1,30.31,South,180,3.6,11.5,52,0.00,CLR,OVC,0.00,0.0,WeatherDisplay:10.37,2013-04-23 07:07:00,
2013-04-23 03:12:00,45.5,29.3,30.31,SSE,163,7.0,10.4,53,0.00,CLR,OVC,0.00,0.0,WeatherDisplay:10.37,2013-04-23 07:12:00,
2013-04-23 03:17:00,45.4,29.7,30.31,SSE,150,6.6,10.4,54,0.00,CLR,OVC,0.00,0.0,WeatherDisplay:10.37,2013-04-23 07:17:00,
2013-04-23 03:22:00,45.3,29.6,30.31,SSE,159,6.7,11.5,54,0.00,CLR,OVC,0.00,0.0,WeatherDisplay:10.37,2013-04-23 07:22:00,
2013-04-23 03:27:00,45.2,29.5,30.31,SSE,149,5.0,11.5,54,0.00,CLR,OVC,0.00,0.0,WeatherDisplay:10.37,2013-04-23 07:27:00,
2013-04-23 03:32:00,45.1,29.9,30.31,SSE,157,7.2,11.5,55,0.00,CLR,OVC,0.00,0.0,WeatherDisplay:10.37,2013-04-23 07:32:00,
2013-04-23 03:37:00,44.9,29.7,30.31,SSE,161,7.0,11.5,55,0.00,CLR,OVC,0.00,0.0,WeatherDisplay:10.37,2013-04-23 07:37:00,
2013-04-23 03:42:00,44.8,30.0,30.31,SSE,163,5.0,12.7,56,0.00,CLR,OVC,0.00,0.0,WeatherDisplay:10.37,2013-04-23 07:42:00,
2013-04-23 03:47:00,44.7,30.0,30.31,SSE,158,7.3,11.5,56,0.00,CLR,OVC,0.00,0.0,WeatherDisplay:10.37,2013-04-23 07:47:00,
2013-04-23 03:52:00,44.7,30.0,30.30,South,169,6.7,11.5,56,0.00,CLR,OVC,0.00,0.0,WeatherDisplay:10.37,2013-04-23 07:52:00,
2013-04-23 03:57:00,44.6,29.9,30.30,SSE,153,5.2,8.1,56,0.00,CLR,OVC,0.00,0.0,WeatherDisplay:10.37,2013-04-23 07:57:00,
2013-04-23 04:02:00,44.5,29.8,30.30,SE,143,4.3,11.0,56,0.00,CLR,OVC,0.00,0.0,WeatherDisplay:10.37,2013-04-23 08:02:00,
2013-04-23 04:07:00,44.3,30.0,30.30,South,173,7.9,13.0,57,0.00,CLR,OVC,0.00,0.0,WeatherDisplay:10.37,2013-04-23 08:07:00,
2013-04-23 04:12:00,44.2,29.9,30.30,SSE,157,3.6,10.4,57,0.00,CLR,OVC,0.00,0.0,WeatherDisplay:10.37,2013-04-23 08:12:00,
2013-04-23 04:17:00,44.1,29.8,30.29,SSE,167,4.2,11.5,57,0.00,CLR,OVC,0.00,0.0,WeatherDisplay:10.37,2013-04-23 08:17:00,
2013-04-23 04:22:00,43.9,29.6,30.30,SSE,160,5.2,10.4,57,0.00,CLR,OVC,0.00,0.0,WeatherDisplay:10.37,2013-04-23 08:22:00,
2013-04-23 04:27:00,43.8,29.5,30.29,South,171,6.6,12.7,57,0.00,CLR,OVC,0.00,0.0,WeatherDisplay:10.37,2013-04-23 08:27:00,
2013-04-23 04:32:00,43.7,29.9,30.29,SSE,164,4.2,8.0,58,0.00,CLR,OVC,0.00,0.0,WeatherDisplay:10.37,2013-04-23 08:32:00,
2013-04-23 04:37:00,43.5,29.7,30.29,SSE,157,5.2,9.2,58,0.00,CLR,OVC,0.00,0.0,WeatherDisplay:10.37,2013-04-23 08:37:00,
2013-04-23 04:42:00,43.3,29.5,30.29,SSE,154,3.8,11.5,58,0.00,CLR,OVC,0.00,0.0,WeatherDisplay:10.37,2013-04-23 08:42:00,
2013-04-23 04:47:00,43.2,29.4,30.29,SSE,153,3.7,5.8,58,0.00,CLR,OVC,0.00,0.0,WeatherDisplay:10.37,2013-04-23 08:47:00,
2013-04-23 04:52:00,43.0,29.2,30.29,SSE,153,3.6,8.0,58,0.00,CLR,OVC,0.00,0.0,WeatherDisplay:10.37,2013-04-23 08:52:00,
2013-04-23 04:57:00,42.8,29.0,30.29,SSE,157,5.0,11.5,58,0.00,CLR,OVC,0.00,0.0,WeatherDisplay:10.37,2013-04-23 08:57:00,
2013-04-23 05:02:00,42.7,28.9,30.28,SSE,158,4.4,8.1,58,0.00,CLR,OVC,0.00,0.0,WeatherDisplay:10.37,2013-04-23 09:02:00,
2013-04-23 05:07:00,42.6,29.3,30.28,SSE,157,3.6,6.0,59,0.00,CLR,OVC,0.00,0.0,WeatherDisplay:10.37,2013-04-23 09:07:00,
2013-04-23 05:12:00,42.5,29.2,30.28,SSE,157,4.1,6.9,59,0.00,CLR,OVC,0.00,0.0,WeatherDisplay:10.37,2013-04-23 09:12:00,
2013-04-23 05:17:00,42.3,29.0,30.28,SSE,155,3.3,8.1,59,0.00,CLR,OVC,0.00,0.0,WeatherDisplay:10.37,2013-04-23 09:17:00,
2013-04-23 05:22:00,42.2,28.9,30.28,SSE,155,1.9,6.0,59,0.00,CLR,OVC,0.00,0.0,WeatherDisplay:10.37,2013-04-23 09:22:00,
2013-04-23 05:27:00,42.0,28.7,30.28,SSE,158,1.6,5.8,59,0.00,CLR,OVC,0.00,0.0,WeatherDisplay:10.37,2013-04-23 09:27:00,
2013-04-23 05:32:00,41.9,29.0,30.28,SSE,157,3.2,5.8,60,0.00,CLR,OVC,0.00,0.0,WeatherDisplay:10.37,2013-04-23 09:32:00,
2013-04-23 05:37:00,41.8,28.9,30.28,SSE,157,3.9,7.0,60,0.00,CLR,OVC,0.00,0.0,WeatherDisplay:10.37,2013-04-23 09:37:00,
2013-04-23 05:42:00,41.6,28.7,30.28,SSE,156,3.0,8.1,60,0.00,CLR,OVC,0.00,0.0,WeatherDisplay:10.37,2013-04-23 09:42:00,
2013-04-23 05:47:00,41.6,28.7,30.28,SSE,156,2.7,5.8,60,0.00,CLR,OVC,0.00,0.0,WeatherDisplay:10.37,2013-04-23 09:47:00,
2013-04-23 05:52:00,41.5,28.6,30.28,SSE,156,3.2,6.0,60,0.00,CLR,OVC,0.00,0.0,WeatherDisplay:10.37,2013-04-23 09:52:00,
2013-04-23 05:57:00,41.4,28.5,30.28,SSE,156,3.0,5.0,60,0.00,CLR,OVC,0.00,0.0,WeatherDisplay:10.37,2013-04-23 09:57:00,
2013-04-23 06:02:00,41.3,28.4,30.28,SSE,156,0.7,4.0,60,0.00,CLR,OVC,0.00,0.0,WeatherDisplay:10.37,2013-04-23 10:02:00,
2013-04-23 06:07:00,41.1,28.3,30.28,SSE,156,0.9,4.0,60,0.00,CLR,OVC,0.00,0.0,WeatherDisplay:10.37,2013-04-23 10:07:00,
2013-04-23 06:12:00,41.0,28.6,30.28,SSE,157,0.3,1.2,61,0.00,CLR,OVC,0.00,0.0,WeatherDisplay:10.37,2013-04-23 10:12:00,
2013-04-23 06:17:00,40.9,28.5,30.28,SSE,157,0.2,6.9,61,0.00,CLR,OVC,0.00,0.0,WeatherDisplay:10.37,2013-04-23 10:17:00,
2013-04-23 06:22:00,40.8,28.4,30.27,SSE,157,2.3,4.0,61,0.00,CLR,OVC,0.00,5.0,WeatherDisplay:10.37,2013-04-23 10:22:00,
2013-04-23 06:27:00,40.7,28.7,30.27,SSE,157,1.4,3.5,62,0.00,CLR,OVC,0.00,9.0,WeatherDisplay:10.37,2013-04-23 10:27:00,
2013-04-23 06:32:00,40.5,28.5,30.27,SSE,157,1.6,4.0,62,0.00,CLR,OVC,0.00,12.0,WeatherDisplay:10.37,2013-04-23 10:32:00,
2013-04-23 06:37:00,40.4,28.4,30.27,SSE,156,2.0,4.0,62,0.00,CLR,OVC,0.00,16.0,WeatherDisplay:10.37,2013-04-23 10:37:00,
2013-04-23 06:42:00,40.3,28.3,30.27,SSE,156,0.7,3.5,62,0.00,CLR,OVC,0.00,19.0,WeatherDisplay:10.37,2013-04-23 10:42:00,
2013-04-23 06:47:00,40.3,28.7,30.27,SSE,156,1.2,5.8,63,0.00,CLR,OVC,0.00,25.0,WeatherDisplay:10.37,2013-04-23 10:47:00,
2013-04-23 06:52:00,40.3,28.7,30.27,SSE,155,2.5,5.8,63,0.00,CLR,OVC,0.00,32.0,WeatherDisplay:10.37,2013-04-23 10:52:00,
2013-04-23 06:57:00,40.4,28.8,30.27,SSE,155,1.1,5.0,63,0.00,CLR,OVC,0.00,33.0,WeatherDisplay:10.37,2013-04-23 10:57:00,
2013-04-23 07:02:00,40.5,28.9,30.27,SSE,157,2.9,7.0,63,0.00,CLR,OVC,0.00,47.0,WeatherDisplay:10.37,2013-04-23 11:02:00,
2013-04-23 07:07:00,40.8,28.8,30.27,SSE,156,3.8,6.9,62,0.00,CLR,OVC,0.00,62.0,WeatherDisplay:10.37,2013-04-23 11:07:00,
2013-04-23 07:12:00,40.9,28.9,30.27,SSE,156,3.1,5.0,62,0.00,CLR,OVC,0.00,79.0,WeatherDisplay:10.37,2013-04-23 11:12:00,
2013-04-23 07:17:00,41.3,28.9,30.27,SSE,154,4.0,9.2,61,0.00,CLR,OVC,0.00,98.0,WeatherDisplay:10.37,2013-04-23 11:17:00,
2013-04-23 07:22:00,41.5,29.0,30.27,SSE,155,3.5,8.1,61,0.00,CLR,OVC,0.00,114.0,WeatherDisplay:10.37,2013-04-23 11:22:00,
2013-04-23 07:27:00,41.7,29.2,30.27,SSE,154,2.1,5.0,61,0.00,CLR,OVC,0.00,130.0,WeatherDisplay:10.37,2013-04-23 11:27:00,
2013-04-23 07:32:00,42.0,29.1,30.27,SSE,154,3.8,11.5,60,0.00,CLR,OVC,0.00,153.0,WeatherDisplay:10.37,2013-04-23 11:32:00,
2013-04-23 07:37:00,42.2,29.3,30.27,SSE,155,4.2,8.1,60,0.00,CLR,OVC,0.00,167.0,WeatherDisplay:10.37,2013-04-23 11:37:00,
2013-04-23 07:42:00,42.4,29.1,30.27,SSE,164,7.2,13.0,59,0.00,CLR,OVC,0.00,185.0,WeatherDisplay:10.37,2013-04-23 11:42:00,
2013-04-23 07:47:00,42.5,29.2,30.27,SE,135,8.4,12.0,59,0.00,CLR,OVC,0.00,207.0,WeatherDisplay:10.37,2013-04-23 11:47:00,
2013-04-23 07:52:00,42.7,29.4,30.27,SE,142,4.5,9.2,59,0.00,CLR,OVC,0.00,225.0,WeatherDisplay:10.37,2013-04-23 11:52:00,
2013-04-23 07:58:00,42.9,29.5,30.27,SSE,148,5.5,9.2,59,0.00,CLR,OVC,0.00,243.0,WeatherDisplay:10.37,2013-04-23 11:58:00,
2013-04-23 08:03:00,43.1,29.7,30.26,SE,146,5.1,9.0,59,0.00,CLR,OVC,0.00,258.0,WeatherDisplay:10.37,2013-04-23 12:03:00,
2013-04-23 08:08:00,43.2,29.4,30.26,SSE,159,2.6,4.6,58,0.00,CLR,OVC,0.00,272.0,WeatherDisplay:10.37,2013-04-23 12:08:00,
2013-04-23 08:13:00,43.5,29.7,30.26,SSE,150,6.5,11.5,58,0.00,CLR,OVC,0.00,292.0,WeatherDisplay:10.37,2013-04-23 12:13:00,
2013-04-23 08:18:00,43.6,29.8,30.27,SSE,161,2.9,8.1,58,0.00,CLR,OVC,0.00,304.0,WeatherDisplay:10.37,2013-04-23 12:18:00,
2013-04-23 08:23:00,43.9,30.1,30.27,SSE,148,3.1,8.1,58,0.00,CLR,OVC,0.00,320.0,WeatherDisplay:10.37,2013-04-23 12:23:00,
2013-04-23 08:28:00,44.3,30.0,30.26,SE,144,2.8,9.2,57,0.00,CLR,OVC,0.00,338.0,WeatherDisplay:10.37,2013-04-23 12:28:00,
2013-04-23 08:33:00,44.7,30.4,30.26,SSE,151,6.3,9.2,57,0.00,CLR,OVC,0.00,353.0,WeatherDisplay:10.37,2013-04-23 12:33:00,
2013-04-23 08:38:00,44.9,30.1,30.26,SSE,148,6.0,11.5,56,0.00,CLR,OVC,0.00,366.0,WeatherDisplay:10.37,2013-04-23 12:38:00,
2013-04-23 08:43:00,45.1,30.3,30.26,SSE,153,6.1,11.0,56,0.00,CLR,OVC,0.00,383.0,WeatherDisplay:10.37,2013-04-23 12:43:00,
2013-04-23 08:48:00,45.3,30.5,30.25,SE,133,4.3,9.2,56,0.00,CLR,OVC,0.00,397.0,WeatherDisplay:10.37,2013-04-23 12:48:00,
2013-04-23 08:53:00,45.7,30.9,30.25,SE,140,5.7,10.4,56,0.00,CLR,OVC,0.00,415.0,WeatherDisplay:10.37,2013-04-23 12:53:00,
2013-04-23 08:58:00,46.2,31.4,30.25,SE,135,3.2,9.2,56,0.00,CLR,OVC,0.00,431.0,WeatherDisplay:10.37,2013-04-23 12:58:00,
2013-04-23 09:03:00,46.7,31.4,30.24,SE,138,7.2,10.4,55,0.00,CLR,OVC,0.00,448.0,WeatherDisplay:10.37,2013-04-23 13:03:00,
2013-04-23 09:08:00,47.2,31.4,30.25,SE,136,4.2,8.1,54,0.00,FEW,OVC,0.00,464.0,WeatherDisplay:10.37,2013-04-23 13:08:00,
2013-04-23 09:13:00,47.4,30.6,30.24,SSE,148,5.7,11.5,52,0.00,FEW,OVC,0.00,480.0,WeatherDisplay:10.37,2013-04-23 13:13:00,
2013-04-23 09:18:00,47.6,31.3,30.24,SE,144,5.7,11.5,53,0.00,FEW,OVC,0.00,492.0,WeatherDisplay:10.37,2013-04-23 13:18:00,
2013-04-23 09:23:00,48.0,31.2,30.24,SSE,153,3.5,9.2,52,0.00,FEW,OVC,0.00,512.0,WeatherDisplay:10.37,2013-04-23 13:23:00,
2013-04-23 09:28:00,48.3,31.9,30.24,SE,127,3.4,9.2,53,0.00,FEW,OVC,0.00,524.0,WeatherDisplay:10.37,2013-04-23 13:28:00,
2013-04-23 09:33:00,48.7,31.4,30.24,SE,140,5.0,9.2,51,0.00,FEW,OVC,0.00,541.0,WeatherDisplay:10.37,2013-04-23 13:33:00,
2013-04-23 09:38:00,49.0,31.6,30.23,SE,124,5.6,8.1,51,0.00,FEW,OVC,0.00,554.0,WeatherDisplay:10.37,2013-04-23 13:38:00,
2013-04-23 09:43:00,49.3,31.9,30.23,SSE,163,6.5,10.4,51,0.00,FEW,OVC,0.00,568.0,WeatherDisplay:10.37,2013-04-23 13:43:00,
2013-04-23 09:48:00,49.9,32.5,30.23,SSE,161,3.9,5.0,51,0.00,FEW,OVC,0.00,585.0,WeatherDisplay:10.37,2013-04-23 13:48:00,
2013-04-23 09:53:00,50.3,31.8,30.23,SE,134,4.8,9.2,49,0.00,FEW,OVC,0.00,598.0,WeatherDisplay:10.37,2013-04-23 13:53:00,
2013-04-23 09:58:00,50.6,32.1,30.22,ESE,111,4.4,9.2,49,0.00,FEW,OVC,0.00,610.0,WeatherDisplay:10.37,2013-04-23 13:58:00,
2013-04-23 10:03:00,51.0,32.5,30.22,SE,126,4.8,8.1,49,0.00,FEW,OVC,0.00,628.0,WeatherDisplay:10.37,2013-04-23 14:03:00,
2013-04-23 10:08:00,51.4,32.3,30.22,ESE,119,4.9,9.2,48,0.00,FEW,OVC,0.00,638.0,WeatherDisplay:10.37,2013-04-23 14:08:00,
2013-04-23 10:13:00,51.9,32.8,30.22,SE,126,4.8,7.0,48,0.00,FEW,OVC,0.00,652.0,WeatherDisplay:10.37,2013-04-23 14:13:00,
2013-04-23 10:18:00,52.4,32.2,30.22,SE,126,2.7,6.9,46,0.00,FEW,OVC,0.00,666.0,WeatherDisplay:10.37,2013-04-23 14:18:00,
2013-04-23 10:23:00,52.6,32.9,30.21,SE,126,0.1,5.8,47,0.00,FEW,OVC,0.00,677.0,WeatherDisplay:10.37,2013-04-23 14:23:00,
2013-04-23 10:28:00,53.2,32.9,30.22,SE,128,4.5,6.0,46,0.00,FEW,OVC,0.00,691.0,WeatherDisplay:10.37,2013-04-23 14:28:00,
2013-04-23 10:33:00,53.5,33.2,30.22,SE,128,3.6,5.0,46,0.00,FEW,OVC,0.00,703.0,WeatherDisplay:10.37,2013-04-23 14:33:00,
2013-04-23 10:38:00,53.5,32.1,30.22,ESE,109,5.6,9.2,44,0.00,FEW,OVC,0.00,712.0,WeatherDisplay:10.37,2013-04-23 14:38:00,
2013-04-23 10:43:00,53.6,32.2,30.22,ESE,109,3.2,5.0,44,0.00,FEW,OVC,0.00,726.0,WeatherDisplay:10.37,2013-04-23 14:43:00,
2013-04-23 10:48:00,53.9,32.5,30.21,ESE,111,3.1,9.2,44,0.00,FEW,OVC,0.00,733.0,WeatherDisplay:10.37,2013-04-23 14:48:00,
2013-04-23 10:53:00,53.9,32.5,30.21,ESE,111,4.2,7.0,44,0.00,FEW,OVC,0.00,745.0,WeatherDisplay:10.37,2013-04-23 14:53:00,
2013-04-23 10:58:00,54.1,32.6,30.20,ESE,111,1.0,5.0,44,0.00,FEW,OVC,0.00,759.0,WeatherDisplay:10.37,2013-04-23 14:58:00,
2013-04-23 11:03:00,54.8,32.1,30.20,SSE,155,5.0,8.1,42,0.00,CLR,OVC,0.00,766.0,WeatherDisplay:10.37,2013-04-23 15:03:00,
2013-04-23 11:08:00,55.3,33.2,30.20,SSE,155,2.7,6.0,43,0.00,CLR,OVC,0.00,772.0,WeatherDisplay:10.37,2013-04-23 15:08:00,
2013-04-23 11:13:00,56.1,32.1,30.21,South,173,5.0,7.0,40,0.00,CLR,OVC,0.00,786.0,WeatherDisplay:10.37,2013-04-23 15:13:00,
2013-04-23 11:18:00,56.5,31.8,30.20,SSW,197,3.5,7.0,39,0.00,CLR,OVC,0.00,796.0,WeatherDisplay:10.37,2013-04-23 15:18:00,
2013-04-23 11:23:00,56.9,32.2,30.20,SSW,200,4.2,6.0,39,0.00,CLR,OVC,0.00,802.0,WeatherDisplay:10.37,2013-04-23 15:23:00,
2013-04-23 11:32:00,56.9,31.5,30.20,NW,313,1.0,6.0,38,0.00,OVC,OVC,0.00,807.0,WeatherDisplay:10.37,2013-04-23 15:32:00,
2013-04-23 11:37:00,57.3,31.9,30.19,SE,137,3.6,8.1,38,0.00,CLR,OVC,0.00,823.0,WeatherDisplay:10.37,2013-04-23 15:37:00,
2013-04-23 11:42:00,57.2,31.8,30.19,ENE,69,4.7,8.1,38,0.00,CLR,OVC,0.00,833.0,WeatherDisplay:10.37,2013-04-23 15:42:00,
2013-04-23 11:47:00,57.0,32.3,30.18,SE,128,3.9,7.0,39,0.00,CLR,OVC,0.00,838.0,WeatherDisplay:10.37,2013-04-23 15:47:00,
2013-04-23 11:52:00,57.3,31.2,30.19,SE,131,3.0,6.9,37,0.00,CLR,OVC,0.00,842.0,WeatherDisplay:10.37,2013-04-23 15:52:00,
2013-04-23 11:57:00,57.5,31.4,30.18,East,92,7.3,9.2,37,0.00,CLR,OVC,0.00,851.0,WeatherDisplay:10.37,2013-04-23 15:57:00,
2013-04-23 12:02:00,57.2,31.8,30.19,East,91,0.8,4.6,38,0.00,CLR,OVC,0.00,856.0,WeatherDisplay:10.37,2013-04-23 16:02:00,
2013-04-23 12:07:00,57.3,31.2,30.19,ENE,69,4.9,9.2,37,0.00,FEW,OVC,0.00,865.0,WeatherDisplay:10.37,2013-04-23 16:07:00,
2013-04-23 12:12:00,57.3,31.9,30.19,NE,37,2.0,5.8,38,0.00,FEW,OVC,0.00,872.0,WeatherDisplay:10.37,2013-04-23 16:12:00,
2013-04-23 12:17:00,58.1,33.2,30.18,NE,36,0.6,2.0,39,0.00,FEW,OVC,0.00,874.0,WeatherDisplay:10.37,2013-04-23 16:17:00,
2013-04-23 12:22:00,58.6,32.4,30.18,East,101,3.2,9.2,37,0.00,FEW,OVC,0.00,881.0,WeatherDisplay:10.37,2013-04-23 16:22:00,
2013-04-23 12:27:00,58.7,32.5,30.18,ESE,114,2.9,10.4,37,0.00,FEW,OVC,0.00,884.0,WeatherDisplay:10.37,2013-04-23 16:27:00,
2013-04-23 12:32:00,59.0,33.4,30.19,SW,230,5.1,8.1,38,0.00,FEW,OVC,0.00,888.0,WeatherDisplay:10.37,2013-04-23 16:32:00,
2013-04-23 12:37:00,59.8,35.4,30.19,WSW,257,4.5,6.0,40,0.00,FEW,OVC,0.00,893.0,WeatherDisplay:10.37,2013-04-23 16:37:00,
2013-04-23 12:42:00,60.3,33.9,30.19,WSW,258,3.7,9.2,37,0.00,FEW,OVC,0.00,900.0,WeatherDisplay:10.37,2013-04-23 16:42:00,
2013-04-23 12:47:00,60.4,33.3,30.19,WNW,288,4.2,6.9,36,0.00,FEW,OVC,0.00,911.0,WeatherDisplay:10.37,2013-04-23 16:47:00,
2013-04-23 12:52:00,60.6,33.5,30.19,SW,216,4.8,8.1,36,0.00,FEW,OVC,0.00,867.0,WeatherDisplay:10.37,2013-04-23 16:52:00,
2013-04-23 12:57:00,61.3,33.4,30.19,South,188,2.8,5.0,35,0.00,FEW,OVC,0.00,840.0,WeatherDisplay:10.37,2013-04-23 16:57:00,
2013-04-23 13:02:00,61.6,33.7,30.19,WNW,289,3.1,9.2,35,0.00,FEW,OVC,0.00,877.0,WeatherDisplay:10.37,2013-04-23 17:02:00,
2013-04-23 13:07:00,61.8,33.8,30.18,WNW,287,1.6,4.0,35,0.00,BKN,OVC,0.00,861.0,WeatherDisplay:10.37,2013-04-23 17:07:00,
2013-04-23 13:12:00,61.8,33.8,30.18,NNW,336,6.8,10.4,35,0.00,BKN,OVC,0.00,870.0,WeatherDisplay:10.37,2013-04-23 17:12:00,
2013-04-23 13:17:00,61.7,33.7,30.17,NNW,338,4.9,7.0,35,0.00,BKN,OVC,0.00,882.0,WeatherDisplay:10.37,2013-04-23 17:17:00,
2013-04-23 13:22:00,61.8,35.2,30.17,NNW,340,5.0,8.0,37,0.00,BKN,OVC,0.00,874.0,WeatherDisplay:10.37,2013-04-23 17:22:00,
2013-04-23 13:27:00,61.7,33.7,30.16,NW,322,2.4,6.9,35,0.00,BKN,OVC,0.00,875.0,WeatherDisplay:10.37,2013-04-23 17:27:00,
2013-04-23 13:32:00,61.5,32.8,30.15,ENE,65,2.1,6.9,34,0.00,BKN,OVC,0.00,882.0,WeatherDisplay:10.37,2013-04-23 17:32:00,
2013-04-23 13:37:00,61.8,34.5,30.15,NE,55,1.7,4.6,36,0.00,BKN,OVC,0.00,881.0,WeatherDisplay:10.37,2013-04-23 17:37:00,
2013-04-23 13:42:00,62.2,32.0,30.15,NNW,343,4.3,6.0,32,0.00,BKN,OVC,0.00,898.0,WeatherDisplay:10.37,2013-04-23 17:42:00,
2013-04-23 13:47:00,62.0,32.5,30.14,NW,309,2.3,4.6,33,0.00,BKN,OVC,0.00,810.0,WeatherDisplay:10.37,2013-04-23 17:47:00,
2013-04-23 13:52:00,61.9,32.5,30.13,NNW,329,3.8,6.9,33,0.00,BKN,OVC,0.00,860.0,WeatherDisplay:10.37,2013-04-23 17:52:00,
2013-04-23 13:57:00,62.2,33.5,30.13,NW,307,4.6,7.0,34,0.00,BKN,OVC,0.00,874.0,WeatherDisplay:10.37,2013-04-23 17:57:00,
2013-04-23 14:02:00,63.0,32.7,30.12,NW,307,2.2,4.0,32,0.00,BKN,OVC,0.00,733.0,WeatherDisplay:10.37,2013-04-23 18:02:00,
2013-04-23 14:07:00,63.1,32.7,30.12,NW,311,0.2,6.9,32,0.00,BKN,OVC,0.00,705.0,WeatherDisplay:10.37,2013-04-23 18:07:00,
2013-04-23 14:12:00,63.3,32.1,30.12,NW,307,0.3,5.8,31,0.00,BKN,OVC,0.00,682.0,WeatherDisplay:10.37,2013-04-23 18:12:00,
2013-04-23 14:17:00,63.6,32.4,30.12,WNW,303,2.5,6.0,31,0.00,BKN,OVC,0.00,745.0,WeatherDisplay:10.37,2013-04-23 18:17:00,
2013-04-23 14:22:00,64.1,32.8,30.12,West,281,1.9,6.9,31,0.00,BKN,OVC,0.00,956.0,WeatherDisplay:10.37,2013-04-23 18:22:00,
2013-04-23 14:27:00,64.6,34.1,30.12,West,266,5.7,8.0,32,0.00,BKN,OVC,0.00,900.0,WeatherDisplay:10.37,2013-04-23 18:27:00,
2013-04-23 14:32:00,64.9,33.5,30.12,West,261,1.9,4.6,31,0.00,BKN,OVC,0.00,784.0,WeatherDisplay:10.37,2013-04-23 18:32:00,
2013-04-23 14:37:00,65.4,33.1,30.10,West,259,1.5,4.6,30,0.00,BKN,OVC,0.00,849.0,WeatherDisplay:10.37,2013-04-23 18:37:00,
2013-04-23 14:42:00,65.4,32.3,30.10,WSW,258,0.1,1.2,29,0.00,BKN,OVC,0.00,826.0,WeatherDisplay:10.37,2013-04-23 18:42:00,
2013-04-23 14:47:00,65.6,32.5,30.11,WSW,256,1.7,4.0,29,0.00,BKN,OVC,0.00,837.0,WeatherDisplay:10.37,2013-04-23 18:47:00,
2013-04-23 14:52:00,65.5,32.4,30.10,SSE,159,3.8,5.0,29,0.00,BKN,OVC,0.00,821.0,WeatherDisplay:10.37,2013-04-23 18:52:00,
2013-04-23 14:57:00,65.1,32.9,30.09,SE,133,3.4,6.0,30,0.00,BKN,OVC,0.00,816.0,WeatherDisplay:10.37,2013-04-23 18:57:00,
2013-04-23 15:02:00,64.9,32.7,30.09,East,96,4.5,7.0,30,0.00,BKN,OVC,0.00,807.0,WeatherDisplay:10.37,2013-04-23 19:02:00,
2013-04-23 15:07:00,65.2,33.0,30.09,ESE,105,3.3,8.1,30,0.00,BKN,OVC,0.00,795.0,WeatherDisplay:10.37,2013-04-23 19:07:00,
2013-04-23 15:12:00,65.6,32.5,30.09,SE,131,4.7,9.2,29,0.00,BKN,OVC,0.00,789.0,WeatherDisplay:10.37,2013-04-23 19:12:00,
2013-04-23 15:17:00,66.0,32.8,30.09,SE,131,0.7,3.5,29,0.00,BKN,OVC,0.00,779.0,WeatherDisplay:10.37,2013-04-23 19:17:00,
2013-04-23 15:22:00,66.6,33.3,30.08,SE,127,3.0,4.6,29,0.00,BKN,OVC,0.00,770.0,WeatherDisplay:10.37,2013-04-23 19:22:00,
2013-04-23 15:27:00,66.8,34.3,30.08,North,350,6.5,9.2,30,0.00,BKN,OVC,0.00,759.0,WeatherDisplay:10.37,2013-04-23 19:27:00,
2013-04-23 15:32:00,66.7,33.4,30.08,North,350,0.3,3.5,29,0.00,BKN,OVC,0.00,751.0,WeatherDisplay:10.37,2013-04-23 19:32:00,
2013-04-23 15:37:00,67.3,33.9,30.06,North,350,1.0,3.5,29,0.00,BKN,OVC,0.00,740.0,WeatherDisplay:10.37,2013-04-23 19:37:00,
2013-04-23 15:42:00,67.8,34.4,30.06,NNE,20,2.7,6.0,29,0.00,BKN,OVC,0.00,729.0,WeatherDisplay:10.37,2013-04-23 19:42:00,
2013-04-23 15:47:00,68.0,34.5,30.06,SE,126,1.1,3.5,29,0.00,BKN,OVC,0.00,719.0,WeatherDisplay:10.37,2013-04-23 19:47:00,
2013-04-23 15:52:00,67.9,34.4,30.06,SW,219,0.4,4.6,29,0.00,BKN,OVC,0.00,708.0,WeatherDisplay:10.37,2013-04-23 19:52:00,
2013-04-23 15:57:00,68.0,36.2,30.05,SSW,209,2.9,4.0,31,0.00,BKN,OVC,0.00,696.0,WeatherDisplay:10.37,2013-04-23 19:57:00,
2013-04-23 16:02:00,68.2,35.6,30.05,SSW,209,2.1,4.6,30,0.00,BKN,OVC,0.00,687.0,WeatherDisplay:10.37,2013-04-23 20:02:00,
2013-04-23 16:07:00,68.2,38.0,30.05,SSW,210,3.6,5.0,33,0.00,SCT,OVC,0.00,670.0,WeatherDisplay:10.37,2013-04-23 20:07:00,
2013-04-23 16:12:00,68.1,35.5,30.04,SE,127,5.3,7.0,30,0.00,SCT,OVC,0.00,654.0,WeatherDisplay:10.37,2013-04-23 20:12:00,
2013-04-23 16:18:00,68.0,35.4,30.05,SE,128,0.0,3.5,30,0.00,SCT,OVC,0.00,642.0,WeatherDisplay:10.37,2013-04-23 20:18:00,
2013-04-23 16:23:00,68.4,36.6,30.04,SE,128,2.4,4.0,31,0.00,SCT,OVC,0.00,628.0,WeatherDisplay:10.37,2013-04-23 20:23:00,
2013-04-23 16:28:00,68.5,35.0,30.04,NW,315,2.3,8.1,29,0.00,SCT,OVC,0.00,610.0,WeatherDisplay:10.37,2013-04-23 20:28:00,
2013-04-23 16:33:00,68.5,36.7,30.04,NW,313,3.2,5.0,31,0.00,SCT,OVC,0.00,605.0,WeatherDisplay:10.37,2013-04-23 20:33:00,
2013-04-23 16:38:00,68.7,36.8,30.04,NW,313,3.5,5.0,31,0.00,SCT,OVC,0.00,587.0,WeatherDisplay:10.37,2013-04-23 20:38:00,
2013-04-23 16:43:00,68.8,35.2,30.04,NW,311,3.2,5.0,29,0.00,SCT,OVC,0.00,575.0,WeatherDisplay:10.37,2013-04-23 20:43:00,
2013-04-23 16:48:00,68.8,35.2,30.04,NW,314,1.2,4.0,29,0.00,SCT,OVC,0.00,547.0,WeatherDisplay:10.37,2013-04-23 20:48:00,
2013-04-23 16:53:00,68.8,36.9,30.03,NW,314,2.7,4.0,31,0.00,SCT,OVC,0.00,536.0,WeatherDisplay:10.37,2013-04-23 20:53:00,
2013-04-23 16:58:00,68.9,35.3,30.03,NW,318,0.1,3.5,29,0.00,SCT,OVC,0.00,512.0,WeatherDisplay:10.37,2013-04-23 20:58:00,
2013-04-23 17:03:00,68.9,36.2,30.03,NW,318,2.2,4.0,30,0.00,SCT,OVC,0.00,490.0,WeatherDisplay:10.37,2013-04-23 21:03:00,
2013-04-23 17:08:00,69.2,38.1,30.03,NW,315,1.5,5.0,32,0.00,SCT,OVC,0.00,427.0,WeatherDisplay:10.37,2013-04-23 21:08:00,
2013-04-23 17:13:00,69.4,38.2,30.03,NW,315,1.4,4.0,32,0.00,SCT,OVC,0.00,434.0,WeatherDisplay:10.37,2013-04-23 21:13:00,
2013-04-23 17:18:00,69.3,36.5,30.03,NW,315,2.6,3.5,30,0.00,SCT,OVC,0.00,417.0,WeatherDisplay:10.37,2013-04-23 21:18:00,
2013-04-23 17:23:00,69.3,36.5,30.02,NW,325,6.1,9.2,30,0.00,SCT,OVC,0.00,404.0,WeatherDisplay:10.37,2013-04-23 21:23:00,
2013-04-23 17:28:00,68.9,35.3,30.02,NW,326,1.0,2.3,29,0.00,SCT,OVC,0.00,399.0,WeatherDisplay:10.37,2013-04-23 21:28:00,
2013-04-23 17:33:00,68.8,36.1,30.02,NNW,327,3.1,6.0,30,0.00,SCT,OVC,0.00,378.0,WeatherDisplay:10.37,2013-04-23 21:33:00,
2013-04-23 17:38:00,68.4,35.7,30.02,NNW,331,0.2,2.3,30,0.00,SCT,OVC,0.00,323.0,WeatherDisplay:10.37,2013-04-23 21:38:00,
2013-04-23 17:43:00,68.2,36.4,30.02,NNW,331,2.1,3.5,31,0.00,SCT,OVC,0.00,278.0,WeatherDisplay:10.37,2013-04-23 21:43:00,
2013-04-23 17:48:00,68.0,36.2,30.02,NNW,332,3.6,6.0,31,0.00,SCT,OVC,0.00,258.0,WeatherDisplay:10.37,2013-04-23 21:48:00,
2013-04-23 17:53:00,67.5,35.8,30.02,ENE,63,3.0,8.1,31,0.00,SCT,OVC,0.00,295.0,WeatherDisplay:10.37,2013-04-23 21:53:00,
2013-04-23 17:58:00,67.4,36.5,30.02,ENE,63,1.3,3.5,32,0.00,SCT,OVC,0.00,334.0,WeatherDisplay:10.37,2013-04-23 21:58:00,
2013-04-23 18:03:00,67.4,35.7,30.02,NE,55,3.7,6.9,31,0.00,SCT,OVC,0.00,279.0,WeatherDisplay:10.37,2013-04-23 22:03:00,
2013-04-23 18:08:00,67.5,36.6,30.01,NE,55,1.1,2.3,32,0.00,BKN,OVC,0.00,283.0,WeatherDisplay:10.37,2013-04-23 22:08:00,
2013-04-23 18:13:00,67.6,37.5,30.01,NE,55,1.0,3.0,33,0.00,BKN,OVC,0.00,239.0,WeatherDisplay:10.37,2013-04-23 22:13:00,
2013-04-23 18:18:00,67.6,37.5,30.01,NE,55,0.3,4.6,33,0.00,BKN,OVC,0.00,225.0,WeatherDisplay:10.37,2013-04-23 22:18:00,
2013-04-23 18:23:00,67.6,37.5,30.01,NE,55,1.4,3.5,33,0.00,BKN,OVC,0.00,211.0,WeatherDisplay:10.37,2013-04-23 22:23:00,
2013-04-23 18:28:00,67.5,38.1,30.01,NE,55,1.6,4.0,34,0.00,BKN,OVC,0.00,167.0,WeatherDisplay:10.37,2013-04-23 22:28:00,
2013-04-23 18:33:00,67.3,36.4,30.01,NE,55,3.5,6.0,32,0.00,BKN,OVC,0.00,134.0,WeatherDisplay:10.37,2013-04-23 22:33:00,
2013-04-23 18:38:00,67.0,36.1,30.01,NE,55,3.0,4.0,32,0.00,BKN,OVC,0.00,127.0,WeatherDisplay:10.37,2013-04-23 22:38:00,
2013-04-23 18:43:00,66.8,36.0,30.01,NE,55,0.3,3.5,32,0.00,BKN,OVC,0.00,123.0,WeatherDisplay:10.37,2013-04-23 22:43:00,
2013-04-23 18:48:00,66.8,37.5,30.00,NE,55,1.9,3.0,34,0.00,BKN,OVC,0.00,114.0,WeatherDisplay:10.37,2013-04-23 22:48:00,
2013-04-23 18:53:00,66.6,36.6,30.00,NE,55,4.2,6.0,33,0.00,BKN,OVC,0.00,102.0,WeatherDisplay:10.37,2013-04-23 22:53:00,
2013-04-23 18:58:00,66.3,36.3,30.00,NE,55,2.9,5.0,33,0.00,BKN,OVC,0.00,76.0,WeatherDisplay:10.37,2013-04-23 22:58:00,
2013-04-23 19:03:00,66.1,36.9,29.99,NE,55,0.7,3.5,34,0.00,BKN,OVC,0.00,69.0,WeatherDisplay:10.37,2013-04-23 23:03:00,
2013-04-23 19:08:00,65.9,36.7,29.99,NE,55,0.2,2.3,34,0.00,BKN,OVC,0.00,69.0,WeatherDisplay:10.37,2013-04-23 23:08:00,
2013-04-23 19:13:00,65.7,36.5,30.00,NE,55,0.5,2.3,34,0.00,BKN,OVC,0.00,62.0,WeatherDisplay:10.37,2013-04-23 23:13:00,
2013-04-23 19:18:00,65.5,36.4,30.00,NE,55,0.4,1.2,34,0.00,BKN,OVC,0.00,54.0,WeatherDisplay:10.37,2013-04-23 23:18:00,
2013-04-23 19:23:00,65.4,36.3,30.00,NE,55,0.5,3.5,34,0.00,BKN,OVC,0.00,47.0,WeatherDisplay:10.37,2013-04-23 23:23:00,
2013-04-23 19:28:00,65.2,36.8,30.00,NE,55,1.6,3.5,35,0.00,BKN,OVC,0.00,37.0,WeatherDisplay:10.37,2013-04-23 23:28:00,
2013-04-23 19:33:00,65.0,36.7,29.99,NE,55,0.0,1.2,35,0.00,BKN,OVC,0.00,26.0,WeatherDisplay:10.37,2013-04-23 23:33:00,
2013-04-23 19:38:00,64.8,37.2,29.99,NE,55,0.0,2.3,36,0.00,BKN,OVC,0.00,19.0,WeatherDisplay:10.37,2013-04-23 23:38:00,
2013-04-23 19:43:00,64.6,36.3,29.99,NE,55,0.7,3.0,35,0.00,BKN,OVC,0.00,18.0,WeatherDisplay:10.37,2013-04-23 23:43:00,
2013-04-23 19:48:00,64.3,36.8,29.98,NE,55,0.0,1.2,36,0.00,BKN,OVC,0.00,12.0,WeatherDisplay:10.37,2013-04-23 23:48:00,
2013-04-23 19:53:00,64.0,36.5,29.98,NE,55,0.1,1.2,36,0.00,BKN,OVC,0.00,9.0,WeatherDisplay:10.37,2013-04-23 23:53:00,
2013-04-23 19:58:00,63.8,37.0,29.99,NE,55,0.0,0.0,37,0.00,BKN,OVC,0.00,5.0,WeatherDisplay:10.37,2013-04-23 23:58:00,
2013-04-23 20:03:00,63.4,36.7,29.99,NE,55,0.0,1.2,37,0.00,BKN,OVC,0.00,0.0,WeatherDisplay:10.37,2013-04-24 00:03:00,
2013-04-23 20:08:00,63.2,36.5,29.98,NE,55,0.0,1.2,37,0.00,BKN,OVC,0.00,0.0,WeatherDisplay:10.37,2013-04-24 00:08:00,
2013-04-23 20:13:00,62.9,36.2,29.98,NE,55,0.0,0.0,37,0.00,BKN,OVC,0.00,0.0,WeatherDisplay:10.37,2013-04-24 00:13:00,
2013-04-23 20:18:00,62.6,35.9,29.98,NE,55,0.0,0.0,37,0.00,BKN,OVC,0.00,0.0,WeatherDisplay:10.37,2013-04-24 00:18:00,
2013-04-23 20:23:00,62.3,36.4,29.98,NE,55,0.0,0.0,38,0.00,BKN,OVC,0.00,0.0,WeatherDisplay:10.37,2013-04-24 00:23:00,
2013-04-23 20:28:00,61.9,36.7,29.98,NE,55,0.0,0.0,39,0.00,BKN,OVC,0.00,0.0,WeatherDisplay:10.37,2013-04-24 00:28:00,
2013-04-23 20:33:00,61.6,36.4,29.98,NE,55,0.0,0.0,39,0.00,BKN,OVC,0.00,0.0,WeatherDisplay:10.37,2013-04-24 00:33:00,
2013-04-23 20:38:00,60.9,36.4,29.98,NE,55,0.0,0.0,40,0.00,BKN,OVC,0.00,0.0,WeatherDisplay:10.37,2013-04-24 00:38:00,
2013-04-23 20:43:00,60.5,36.7,29.98,NE,55,0.0,0.0,41,0.00,BKN,OVC,0.00,0.0,WeatherDisplay:10.37,2013-04-24 00:43:00,
2013-04-23 20:48:00,60.2,36.4,29.98,NE,55,0.0,0.0,41,0.00,BKN,OVC,0.00,0.0,WeatherDisplay:10.37,2013-04-24 00:48:00,
2013-04-23 20:53:00,59.9,36.1,29.98,NE,55,0.0,0.0,41,0.00,BKN,OVC,0.00,0.0,WeatherDisplay:10.37,2013-04-24 00:53:00,
2013-04-23 20:58:00,59.6,36.5,29.98,NE,55,0.0,0.0,42,0.00,BKN,OVC,0.00,0.0,WeatherDisplay:10.37,2013-04-24 00:58:00,
2013-04-23 21:03:00,59.2,36.1,29.98,NE,55,0.0,0.0,42,0.00,BKN,OVC,0.00,0.0,WeatherDisplay:10.37,2013-04-24 01:03:00,
2013-04-23 21:09:00,58.6,36.2,29.98,NE,55,0.0,0.0,43,0.00,BKN,OVC,0.00,0.0,WeatherDisplay:10.37,2013-04-24 01:09:00,
2013-04-23 21:14:00,58.3,36.5,29.98,NE,55,0.0,0.0,44,0.00,BKN,OVC,0.00,0.0,WeatherDisplay:10.37,2013-04-24 01:14:00,
2013-04-23 21:19:00,57.8,36.0,29.98,NE,55,0.0,0.0,44,0.00,BKN,OVC,0.00,0.0,WeatherDisplay:10.37,2013-04-24 01:19:00,
2013-04-23 21:24:00,57.2,36.6,29.98,NE,55,0.0,0.0,46,0.00,BKN,OVC,0.00,0.0,WeatherDisplay:10.37,2013-04-24 01:24:00,
2013-04-23 21:29:00,56.6,38.2,29.97,NE,55,0.0,1.2,50,0.00,BKN,OVC,0.00,0.0,WeatherDisplay:10.37,2013-04-24 01:29:00,
2013-04-23 21:34:00,56.0,37.6,29.97,NE,55,0.0,1.2,50,0.00,BKN,OVC,0.00,0.0,WeatherDisplay:10.37,2013-04-24 01:34:00,
2013-04-23 21:39:00,55.5,39.1,29.97,NE,55,0.0,1.2,54,0.00,BKN,OVC,0.00,0.0,WeatherDisplay:10.37,2013-04-24 01:39:00,
2013-04-23 21:44:00,55.0,38.2,29.97,NE,55,1.2,3.5,53,0.00,BKN,OVC,0.00,0.0,WeatherDisplay:10.37,2013-04-24 01:44:00,
2013-04-23 21:49:00,54.5,38.2,29.96,NE,55,0.0,2.3,54,0.00,BKN,OVC,0.00,0.0,WeatherDisplay:10.37,2013-04-24 01:49:00,
2013-04-23 21:54:00,54.2,37.4,29.95,NE,55,0.0,1.2,53,0.00,BKN,OVC,0.00,0.0,WeatherDisplay:10.37,2013-04-24 01:54:00,
2013-04-23 21:59:00,54.0,37.2,29.96,NE,55,0.1,1.2,53,0.00,BKN,OVC,0.00,0.0,WeatherDisplay:10.37,2013-04-24 01:59:00,
2013-04-23 22:04:00,53.9,37.1,29.96,NE,55,0.3,3.5,53,0.00,BKN,OVC,0.00,0.0,WeatherDisplay:10.37,2013-04-24 02:04:00,
2013-04-23 22:09:00,53.9,37.1,29.95,NE,55,0.6,3.5,53,0.00,BKN,OVC,0.00,0.0,WeatherDisplay:10.37,2013-04-24 02:09:00,
2013-04-23 22:14:00,54.0,37.2,29.95,NE,55,0.2,2.3,53,0.00,BKN,OVC,0.00,0.0,WeatherDisplay:10.37,2013-04-24 02:14:00,
2013-04-23 22:19:00,54.1,37.3,29.95,ENE,60,1.3,6.9,53,0.00,BKN,OVC,0.00,0.0,WeatherDisplay:10.37,2013-04-24 02:19:00,
2013-04-23 22:24:00,54.4,36.6,29.95,ENE,69,3.7,7.0,51,0.00,BKN,OVC,0.00,0.0,WeatherDisplay:10.37,2013-04-24 02:24:00,
2013-04-23 22:30:00,54.9,36.6,29.95,East,87,3.4,6.0,50,0.00,BKN,OVC,0.00,0.0,WeatherDisplay:10.37,2013-04-24 02:30:00,
2013-04-23 22:35:00,55.4,36.0,29.95,ESE,115,2.7,6.9,48,0.00,BKN,OVC,0.00,0.0,WeatherDisplay:10.37,2013-04-24 02:35:00,
2013-04-23 22:41:00,56.2,35.1,29.95,South,170,3.9,9.2,45,0.00,BKN,OVC,0.00,0.0,WeatherDisplay:10.37,2013-04-24 02:41:00,
2013-04-23 22:47:00,57.1,35.4,29.95,South,169,3.2,9.2,44,0.00,BKN,OVC,0.00,0.0,WeatherDisplay:10.37,2013-04-24 02:47:00,
2013-04-23 22:52:00,57.5,35.2,29.94,SSE,164,3.0,5.8,43,0.00,BKN,OVC,0.00,0.0,WeatherDisplay:10.37,2013-04-24 02:52:00,
2013-04-23 22:57:00,58.0,35.0,29.94,SSE,166,4.7,8.1,42,0.00,BKN,OVC,0.00,0.0,WeatherDisplay:10.37,2013-04-24 02:57:00,
2013-04-23 23:02:00,58.3,34.7,29.94,South,173,2.7,8.1,41,0.00,BKN,OVC,0.00,0.0,WeatherDisplay:10.37,2013-04-24 03:02:00,
2013-04-23 23:07:00,58.6,35.0,29.94,South,169,4.0,8.1,41,0.00,BKN,OVC,0.00,0.0,WeatherDisplay:10.37,2013-04-24 03:07:00,
2013-04-23 23:12:00,59.0,34.7,29.93,SSE,167,6.0,10.4,40,0.00,BKN,OVC,0.00,0.0,WeatherDisplay:10.37,2013-04-24 03:12:00,
2013-04-23 23:17:00,59.3,34.3,29.93,SSE,157,4.3,9.2,39,0.00,BKN,OVC,0.00,0.0,WeatherDisplay:10.37,2013-04-24 03:17:00,
2013-04-23 23:22:00,59.4,34.4,29.93,SSE,160,3.4,6.0,39,0.00,BKN,OVC,0.00,0.0,WeatherDisplay:10.37,2013-04-24 03:22:00,
2013-04-23 23:27:00,59.4,34.4,29.93,SSE,162,3.9,8.1,39,0.00,BKN,OVC,0.00,0.0,WeatherDisplay:10.37,2013-04-24 03:27:00,
2013-04-23 23:33:00,59.4,34.4,29.94,South,173,5.2,10.4,39,0.00,BKN,OVC,0.00,0.0,WeatherDisplay:10.37,2013-04-24 03:33:00,
2013-04-23 23:38:00,59.5,33.9,29.94,South,184,3.8,10.0,38,0.00,BKN,OVC,0.00,0.0,WeatherDisplay:10.37,2013-04-24 03:38:00,
2013-04-23 23:43:00,59.6,33.9,29.93,South,182,4.1,8.1,38,0.00,BKN,OVC,0.00,0.0,WeatherDisplay:10.37,2013-04-24 03:43:00,
2013-04-23 23:49:00,59.8,34.1,29.93,South,178,2.7,10.0,38,0.00,BKN,OVC,0.00,0.0,WeatherDisplay:10.37,2013-04-24 03:49:00,
2013-04-23 23:54:00,59.9,34.2,29.93,South,187,5.3,10.4,38,0.00,BKN,OVC,0.00,0.0,WeatherDisplay:10.37,2013-04-24 03:54:00,
2013-04-23 23:59:00,60.1,34.4,29.92,SSE,165,6.7,11.5,38,0.00,BKN,OVC,0.00,0.0,WeatherDisplay:10.37,2013-04-24 03:59:00,